Location: Bocianicha
(51.5066°N, 19.2563°E)
Time: 14:05:03
(UTC+00:00)

Meteor 1-21 Rocket - Pass Details

Date: 15 June 2025
Orbit: 832 x 906 km, 81.2° (Epoch: 17 July)

Event Time Altitude Azimuth Distance (km) Brightness Sun altitude
Exits shadow 00:19:50 16° 197° (SSW) 2,157 5.7 -12.2°
Maximum altitude 00:24:36 80° 283° (WNW) 919 4.4 -12.0°
Drops below altitude 10° 00:30:29 10° 11° (N) 2,569 8.1 -11.6°
Sets 00:32:56 0° 13° (NNE) 3,503 9.2 -11.4°
